EW0380 Weather Reports


Display with metric or nautical units.
time (UTC)temp
F
wind
direction
speed
MPH
gust
MPH
rain 1hr
in
rain 24hr
in
rain mn
in
humidity
%
barometer
mb
20260502200030 48 21 3.0 5.0 0.00 0.02 0.01 55 1017.7
20260502195016 49 10 5.0 8.0 0.00 0.02 0.01 54 1017.7
20260502194040 49 18 4.0 6.0 0.00 0.02 0.01 53 1017.7
20260502193025 50 359 5.0 7.0 0.00 0.02 0.01 51 1017.7
20260502192029 51 30 4.0 6.0 0.00 0.02 0.01 48 1017.9
20260502191016 51 28 3.0 5.0 0.00 0.03 0.01 51 1018.0
20260502190020 51 23 5.0 6.0 0.00 0.03 0.01 49 1018.0
20260502185024 50 0 4.0 7.0 0.00 0.03 0.01 53 1018.1
20260502184028 49 19 4.0 6.0 0.00 0.03 0.01 52 1018.1
20260502183032 50 12 4.0 6.0 0.00 0.03 0.01 50 1018.0
20260502182018 51 353 4.0 7.0 0.00 0.03 0.01 50 1018.2
20260502181023 50 261 3.0 5.0 0.00 0.03 0.01 51 1018.2
20260502164025 46 5 2.0 3.0 0.00 0.06 0.01 61 1018.5
20260502163030 44 25 2.0 4.0 0.00 0.06 0.01 64 1018.5
20260502162016 43 9 4.0 6.0 0.00 0.07 0.01 65 1018.5
20260502161020 43 21 3.0 5.0 0.00 0.08 0.01 66 1018.6
20260502152017 42 29 4.0 6.0 0.00 0.14 0.01 66 1018.4
20260502151015 41 14 3.0 5.0 0.00 0.16 0.01 66 1018.2
20260502123025 38 0.0 0.0 0.00 0.26 0.01 92 1017.9
20260502122029 37 0.0 0.0 0.00 0.27 0.01 93 1017.7
20260502121015 37 0.0 0.0 0.00 0.28 0.01 94 1017.7
20260502115024 37 0.0 0.0 0.00 0.29 0.01 94 1017.9
20260502114029 37 0.0 0.0 0.00 0.29 0.01 94 1017.9
20260502113032 36 0.0 0.0 0.00 0.30 0.01 94 1017.9
20260502112018 36 45 0.0 1.0 0.01 0.30 0.01 94 1017.7
20260502111023 36 25 1.0 3.0 0.01 0.30 0.01 94 1017.7
20260502110028 36 0.0 0.0 0.01 0.30 0.01 94 1017.5
20260502105032 36 0.0 0.0 0.01 0.30 0.01 94 1017.5
20260502104018 36 0.0 0.0 0.01 0.30 0.01 94 1017.5
20260502103043 36 0.0 0.0 0.01 0.30 0.01 93 1017.3
20260502102047 36 113 1.0 2.0 0.00 0.29 0.00 93 1017.3
20260502101025 36 133 2.0 2.0 0.00 0.29 0.00 92 1017.3
20260502091015 37 14 2.0 2.0 0.00 0.29 0.00 87 1017.0
20260502071020 39 0.0 0.0 0.00 0.29 0.00 92 1016.7
20260502070023 39 0.0 0.0 0.00 0.29 0.00 92 1016.8
20260502065028 39 0.0 0.0 0.00 0.29 0.00 92 1016.8
20260502064032 39 0.0 0.0 0.00 0.29 0.00 92 1016.9
20260502063018 39 0.0 0.0 0.00 0.29 0.00 91 1017.0
20260502062022 39 0.0 0.0 0.00 0.29 0.00 91 1017.1
20260502061027 39 0.0 0.0 0.00 0.29 0.00 90 1017.2
20260502060032 39 0.0 0.0 0.00 0.29 0.00 90 1017.3
20260502055018 39 0.0 0.0 0.00 0.29 0.00 90 1017.3
20260502054021 39 0.0 0.0 0.00 0.29 0.00 94 1017.4
20260502053025 39 0.0 0.0 0.00 0.29 0.00 94 1017.5
20260502052050 39 0.0 0.0 0.00 0.29 0.00 94 1017.5
20260502051016 39 0.0 0.0 0.00 0.29 0.00 95 1017.5
20260502050020 39 0.0 0.0 0.00 0.29 0.00 95 1017.2
20260502045044 39 0.0 0.0 0.00 0.29 0.00 95 1017.3
20260502044029 39 0.0 0.0 0.00 0.29 0.00 95 1017.3
20260502043015 39 0.0 0.0 0.00 0.29 0.00 95 1017.1
20260502042019 39 0.0 0.0 0.00 0.29 0.00 95 1017.2
20260502041024 39 0.0 0.0 0.00 0.29 0.00 95 1017.2
20260502040022 39 0.0 0.0 0.00 0.29 0.00 95 1017.0
20260502035020 39 0.0 0.0 0.00 0.29 0.29 95 1017.0
20260502034019 39 0.0 0.0 0.00 0.29 0.29 95 1017.0
20260502033017 38 0.0 0.0 0.00 0.29 0.29 95 1017.0
20260502032015 38 0.0 0.0 0.00 0.29 0.29 95 1016.8
20260502031031 38 0.0 0.0 0.00 0.29 0.29 95 1016.8
20260502030018 38 0.0 0.0 0.00 0.29 0.29 95 1016.8
20260502025022 38 0.0 0.0 0.00 0.29 0.29 95 1016.8
20260502024026 38 0.0 0.0 0.00 0.29 0.29 94 1016.8
20260502023030 38 180 0.0 1.0 0.00 0.29 0.29 94 1016.9
20260502022017 37 225 0.0 2.0 0.00 0.29 0.29 93 1017.0
20260502021021 38 0.0 0.0 0.00 0.29 0.29 93 1016.7
20260502020025 37 248 0.0 2.0 0.00 0.29 0.29 92 1016.6
20260502015030 38 0.0 0.0 0.00 0.29 0.29 90 1016.5
20260502014016 38 0.0 0.0 0.00 0.29 0.29 91 1016.4
20260502013021 39 0.0 0.0 0.00 0.29 0.29 89 1016.4
20260502012045 39 270 0.0 2.0 0.00 0.29 0.29 89 1016.2
20260502011029 39 46 1.0 2.0 0.00 0.29 0.29 88 1016.1
20260502010016 40 40 1.0 2.0 0.00 0.29 0.29 86 1015.9
20260502005021 41 0.0 0.0 0.00 0.29 0.29 85 1015.7
20260502004024 41 273 1.0 2.0 0.00 0.29 0.29 83 1015.6
20260502003028 41 261 0.0 2.0 0.00 0.29 0.29 82 1015.6
20260502002032 42 8 1.0 2.0 0.00 0.29 0.29 80 1015.5
20260502001018 42 18 1.0 3.0 0.00 0.29 0.29 79 1015.5
20260502000043 43 31 2.0 3.0 0.00 0.29 0.29 76 1015.3
20260501235028 43 352 2.0 4.0 0.00 0.29 0.29 73 1015.1
20260501234052 44 16 3.0 5.0 0.00 0.29 0.29 70 1015.0
20260501233038 45 12 3.0 5.0 0.00 0.29 0.29 70 1014.8
20260501232022 45 16 3.0 4.0 0.00 0.29 0.29 67 1014.6
20260501231027 46 348 2.0 3.0 0.00 0.29 0.29 66 1014.5
20260501230032 47 11 3.0 4.0 0.00 0.29 0.29 66 1014.6
20260501225017 49 11 3.0 4.0 0.00 0.29 0.29 64 1014.6
20260501224022 49 10 4.0 5.0 0.00 0.29 0.29 64 1014.6
20260501223046 49 349 2.0 4.0 0.00 0.29 0.29 69 1014.6
20260501222024 48 11 2.0 4.0 0.00 0.29 0.29 74 1014.6
20260501221017 47 13 2.0 3.0 0.00 0.29 0.29 75 1014.5
20260501220021 46 307 2.0 3.0 0.00 0.29 0.29 77 1014.4
20260501215019 46 345 1.0 2.0 0.00 0.29 0.29 79 1014.4
20260501214017 45 79 2.0 3.0 0.00 0.29 0.29 81 1014.3
20260501213016 45 114 3.0 4.0 0.01 0.29 0.29 81 1014.3
20260501212020 45 149 2.0 3.0 0.01 0.29 0.29 81 1014.1
20260501211024 44 354 2.0 3.0 0.01 0.29 0.29 83 1014.1
20260501210029 44 1 2.0 3.0 0.01 0.29 0.29 86 1014.3
20260501205015 42 29 3.0 4.0 0.01 0.29 0.29 89 1014.4
20260501204019 42 19 3.0 5.0 0.01 0.29 0.29 89 1014.4
20260501203024 42 24 1.0 3.0 0.00 0.28 0.28 89 1014.4
20260501202028 41 31 3.0 4.0 0.00 0.28 0.28 90 1014.3
20260501201032 41 22 3.0 5.0 0.01 0.28 0.28 91 1014.3